Time,TemperatureF,DewpointF,PressureIn,WindDirection,WindDirectionDegrees,WindSpeedMPH,WindSpeedGustMPH,Humidity,HourlyPrecipIn,Conditions,Clouds,dailyrainin,SoftwareType,DateUTC
2013-09-09 00:11:00,65.0,61.0,30.04,ESE,119,0.0,0.0,87,0.00,,,0.00,,2013-09-09 07:11:00,
2013-09-09 00:21:00,65.0,61.0,30.03,ESE,119,0.0,2.0,88,0.00,,,0.00,,2013-09-09 07:21:00,
2013-09-09 00:52:00,64.0,61.0,30.04,ESE,120,0.0,3.0,89,0.00,,,0.00,,2013-09-09 07:52:00,
2013-09-09 01:11:00,63.0,60.0,30.04,ESE,120,0.0,3.0,90,0.00,,,0.00,,2013-09-09 08:11:00,
2013-09-09 01:21:00,63.0,60.0,30.04,ESE,120,2.0,4.0,90,0.00,,,0.00,,2013-09-09 08:21:00,
2013-09-09 01:52:00,63.0,60.0,30.04,ESE,119,0.0,2.0,91,0.00,,,0.00,,2013-09-09 08:52:00,
2013-09-09 02:11:00,63.0,60.0,30.03,ENE,72,1.0,2.0,91,0.00,,,0.00,,2013-09-09 09:11:00,
2013-09-09 02:22:00,62.0,60.0,30.03,ENE,70,1.0,3.0,92,0.00,,,0.00,,2013-09-09 09:22:00,
2013-09-09 02:53:00,62.0,60.0,30.03,ESE,114,0.0,4.0,92,0.00,,,0.00,,2013-09-09 09:53:00,
2013-09-09 03:12:00,62.0,60.0,30.03,ESE,108,0.0,2.0,92,0.00,,,0.00,,2013-09-09 10:12:00,
2013-09-09 03:23:00,61.0,59.0,30.03,ESE,108,0.0,2.0,93,0.00,,,0.00,,2013-09-09 10:23:00,
2013-09-09 03:52:00,61.0,59.0,30.03,ESE,108,1.0,4.0,93,0.00,,,0.00,,2013-09-09 10:52:00,
2013-09-09 04:11:00,61.0,59.0,30.03,ESE,108,0.0,2.0,94,0.00,,,0.00,,2013-09-09 11:11:00,
2013-09-09 04:21:00,61.0,59.0,30.03,ESE,108,0.0,3.0,93,0.00,,,0.00,,2013-09-09 11:21:00,
2013-09-09 04:52:00,61.0,59.0,30.03,ESE,108,0.0,2.0,94,0.00,,,0.00,,2013-09-09 11:52:00,
2013-09-09 05:11:00,61.0,59.0,30.03,ESE,108,0.0,1.0,94,0.00,,,0.00,,2013-09-09 12:11:00,
2013-09-09 05:22:00,61.0,59.0,30.03,ESE,109,1.0,2.0,94,0.00,,,0.00,,2013-09-09 12:22:00,
2013-09-09 05:52:00,60.0,58.0,30.03,ESE,108,0.0,2.0,94,0.00,,,0.00,,2013-09-09 12:52:00,
2013-09-09 06:11:00,61.0,59.0,30.03,ESE,108,0.0,2.0,94,0.00,,,0.00,,2013-09-09 13:11:00,
2013-09-09 06:21:00,60.0,58.0,30.04,ESE,108,0.0,1.0,94,0.00,,,0.00,,2013-09-09 13:21:00,
2013-09-09 06:52:00,60.0,58.0,30.04,ESE,109,1.0,3.0,94,0.00,,,0.00,,2013-09-09 13:52:00,
2013-09-09 07:12:00,60.0,58.0,30.05,ESE,109,0.0,3.0,94,0.00,,,0.00,,2013-09-09 14:12:00,
2013-09-09 07:21:00,60.0,58.0,30.05,ESE,108,0.0,0.0,94,0.00,,,0.00,,2013-09-09 14:21:00,
2013-09-09 07:52:00,60.0,58.0,30.05,ESE,108,0.0,1.0,94,0.00,,,0.00,,2013-09-09 14:52:00,
2013-09-09 08:11:00,60.0,58.0,30.05,ESE,108,0.0,1.0,94,0.00,,,0.00,,2013-09-09 15:11:00,
2013-09-09 08:22:00,60.0,58.0,30.05,ESE,108,1.0,3.0,94,0.00,,,0.00,,2013-09-09 15:22:00,
2013-09-09 08:43:00,61.0,59.0,30.06,ESE,107,0.0,2.0,94,0.00,,,0.00,,2013-09-09 15:43:00,
2013-09-09 08:53:00,61.0,59.0,30.06,ESE,107,0.0,2.0,94,0.00,,,0.00,,2013-09-09 15:53:00,
2013-09-09 09:13:00,61.0,59.0,30.06,ESE,107,1.0,4.0,94,0.00,,,0.00,,2013-09-09 16:13:00,
2013-09-09 09:24:00,61.0,59.0,30.06,ESE,107,1.0,3.0,94,0.00,,,0.00,,2013-09-09 16:24:00,
2013-09-09 09:43:00,62.0,60.0,30.06,North,355,0.0,3.0,93,0.00,,,0.00,,2013-09-09 16:43:00,
2013-09-09 09:54:00,62.0,60.0,30.06,NW,314,1.0,4.0,92,0.00,,,0.00,,2013-09-09 16:54:00,
2013-09-09 10:12:00,62.0,60.0,30.06,NW,314,0.0,4.0,92,0.00,,,0.00,,2013-09-09 17:12:00,
2013-09-09 10:23:00,62.0,59.0,30.07,NW,314,1.0,6.0,91,0.00,,,0.00,,2013-09-09 17:23:00,
2013-09-09 10:53:00,63.0,60.0,30.07,NW,314,2.0,5.0,90,0.00,,,0.00,,2013-09-09 17:53:00,
2013-09-09 11:13:00,63.0,60.0,30.07,NW,314,0.0,2.0,90,0.00,,,0.00,,2013-09-09 18:13:00,
2013-09-09 11:21:00,63.0,60.0,30.06,NW,314,2.0,4.0,90,0.00,,,0.00,,2013-09-09 18:21:00,
2013-09-09 11:52:00,64.0,60.0,30.06,NNW,331,1.0,4.0,87,0.00,,,0.00,,2013-09-09 18:52:00,
2013-09-09 12:11:00,66.0,62.0,30.06,WNW,300,2.0,5.0,86,0.00,,,0.00,,2013-09-09 19:11:00,
2013-09-09 12:22:00,67.0,61.0,30.06,WNW,301,1.0,5.0,82,0.00,,,0.00,,2013-09-09 19:22:00,
2013-09-09 12:42:00,68.0,62.0,30.06,NW,317,2.0,5.0,81,0.00,,,0.00,,2013-09-09 19:42:00,
2013-09-09 12:52:00,68.0,62.0,30.05,WSW,252,3.0,7.0,80,0.00,,,0.00,,2013-09-09 19:52:00,
2013-09-09 13:12:00,70.0,63.0,30.04,WSW,246,2.0,7.0,78,0.00,,,0.00,,2013-09-09 20:12:00,
2013-09-09 13:21:00,71.0,63.0,30.03,NNW,327,2.0,6.0,76,0.00,,,0.00,,2013-09-09 20:21:00,
2013-09-09 13:42:00,71.0,63.0,30.03,West,265,1.0,4.0,75,0.00,,,0.00,,2013-09-09 20:42:00,
2013-09-09 13:53:00,73.0,63.0,30.03,NW,325,3.0,7.0,70,0.00,,,0.00,,2013-09-09 20:53:00,
2013-09-09 14:12:00,74.0,63.0,30.03,NW,317,2.0,8.0,69,0.00,,,0.00,,2013-09-09 21:12:00,
2013-09-09 14:22:00,74.0,63.0,30.03,WNW,300,5.0,7.0,69,0.00,,,0.00,,2013-09-09 21:22:00,
2013-09-09 14:54:00,75.0,63.0,30.02,WNW,295,2.0,7.0,66,0.00,,,0.00,,2013-09-09 21:54:00,
2013-09-09 15:13:00,77.0,64.0,30.01,WNW,293,2.0,7.0,64,0.00,,,0.00,,2013-09-09 22:13:00,
2013-09-09 15:24:00,76.0,63.0,30.01,WNW,286,2.0,6.0,65,0.00,,,0.00,,2013-09-09 22:24:00,
2013-09-09 15:43:00,77.0,63.0,30.01,WNW,286,2.0,7.0,63,0.00,,,0.00,,2013-09-09 22:43:00,
2013-09-09 15:54:00,77.0,63.0,30.00,West,271,4.0,8.0,63,0.00,,,0.00,,2013-09-09 22:54:00,
2013-09-09 16:12:00,77.0,63.0,30.00,NW,323,2.0,6.0,62,0.00,,,0.00,,2013-09-09 23:12:00,
2013-09-09 16:22:00,78.0,63.0,30.00,NW,315,4.0,11.0,61,0.00,,,0.00,,2013-09-09 23:22:00,
2013-09-09 16:52:00,77.0,63.0,29.99,WNW,300,3.0,9.0,61,0.00,,,0.00,,2013-09-09 23:52:00,
2013-09-09 17:12:00,78.0,63.0,29.99,NW,309,2.0,7.0,61,0.00,,,0.00,,2013-09-10 00:12:00,
2013-09-09 17:21:00,77.0,63.0,29.99,NW,308,2.0,7.0,61,0.00,,,0.00,,2013-09-10 00:21:00,
2013-09-09 17:42:00,77.0,62.0,29.99,WNW,302,3.0,6.0,60,0.00,,,0.00,,2013-09-10 00:42:00,
2013-09-09 17:52:00,76.0,62.0,29.99,NW,309,1.0,9.0,61,0.00,,,0.00,,2013-09-10 00:52:00,
2013-09-09 18:11:00,76.0,62.0,29.99,NW,317,3.0,7.0,61,0.00,,,0.00,,2013-09-10 01:11:00,
2013-09-09 18:21:00,75.0,61.0,29.99,NW,310,5.0,9.0,62,0.00,,,0.00,,2013-09-10 01:21:00,
2013-09-09 18:42:00,75.0,61.0,29.99,WNW,300,5.0,9.0,62,0.00,,,0.00,,2013-09-10 01:42:00,
2013-09-09 18:52:00,74.0,61.0,29.98,NNW,342,1.0,7.0,63,0.00,,,0.00,,2013-09-10 01:52:00,
2013-09-09 19:12:00,74.0,61.0,29.98,NW,312,1.0,5.0,64,0.00,,,0.00,,2013-09-10 02:12:00,
2013-09-09 19:22:00,74.0,61.0,29.98,NW,322,2.0,4.0,65,0.00,,,0.00,,2013-09-10 02:22:00,
2013-09-09 19:42:00,73.0,61.0,29.98,North,355,1.0,5.0,67,0.00,,,0.00,,2013-09-10 02:42:00,
2013-09-09 19:52:00,72.0,61.0,29.98,NNW,339,0.0,2.0,68,0.00,,,0.00,,2013-09-10 02:52:00,
2013-09-09 20:12:00,71.0,61.0,29.98,NNW,339,0.0,1.0,71,0.00,,,0.00,,2013-09-10 03:12:00,
2013-09-09 20:22:00,70.0,61.0,29.98,NNW,339,0.0,1.0,73,0.00,,,0.00,,2013-09-10 03:22:00,
2013-09-09 20:54:00,68.0,60.0,29.98,NNW,339,0.0,1.0,76,0.00,,,0.00,,2013-09-10 03:54:00,
2013-09-09 21:24:00,67.0,59.0,29.99,NNW,340,0.0,1.0,75,0.00,,,0.00,,2013-09-10 04:24:00,
2013-09-09 21:53:00,67.0,60.0,29.98,NNW,340,0.0,1.0,77,0.00,,,0.00,,2013-09-10 04:53:00,
2013-09-09 22:23:00,66.0,59.0,29.98,NE,41,0.0,1.0,78,0.00,,,0.00,,2013-09-10 05:23:00,
2013-09-09 22:53:00,65.0,59.0,29.98,NE,41,0.0,1.0,80,0.00,,,0.00,,2013-09-10 05:53:00,
2013-09-09 23:12:00,65.0,59.0,29.98,NE,41,0.0,0.0,80,0.00,,,0.00,,2013-09-10 06:12:00,
2013-09-09 23:22:00,65.0,60.0,29.98,NE,41,0.0,1.0,83,0.00,,,0.00,,2013-09-10 06:22:00,
2013-09-09 23:52:00,64.0,59.0,29.98,East,94,1.0,3.0,85,0.00,,,0.00,,2013-09-10 06:52:00,